GW4749 Weather Reports


time (UTC)temp
C
wind
direction
speed
KPH
gust
KPH
rain 1hr
cm
rain 24hr
cm
rain mn
cm
humidity
%
barometer
mb
20260906110644 25 129 0.0 8.0 0.00 0.00 0.00 97 1019.2
20260906110004 25 122 4.8 9.7 0.00 0.00 0.00 95 1019.2
20260906105324 26 125 3.2 8.0 0.00 0.00 0.00 96 1019.2
20260906104644 26 123 4.8 11.3 0.00 0.00 0.00 95 1019.4
20260906104004 26 131 6.4 11.3 0.00 0.00 0.00 98 1019.4
20260906103324 26 123 6.4 11.3 0.00 0.00 0.00 96 1019.3
20260906102644 26 124 4.8 24.1 0.00 0.00 0.00 98 1019.3
20260906100644 26 128 4.8 6.4 0.00 0.00 0.00 95 1019.1
20260906095324 26 130 0.0 4.8 0.00 0.00 0.00 97 1018.8
20260906094644 25 130 3.2 4.8 0.00 0.00 0.00 97 1018.6
20260906094004 25 127 0.0 3.2 0.00 0.00 0.00 97 1018.8
20260906093324 26 130 0.0 4.8 0.00 0.00 0.00 98 1018.6
20260906092644 26 135 3.2 4.8 0.00 0.00 0.00 97 1018.5
20260906091324 26 129 1.6 4.8 0.00 0.00 0.00 97 1018.5
20260906090644 26 129 1.6 3.2 0.00 0.00 0.00 97 1018.4
20260906090004 26 128 1.6 4.8 0.00 0.00 0.00 97 1018.4
20260906085324 26 129 1.6 4.8 0.00 0.00 0.00 97 1018.3
20260906084644 26 130 1.6 4.8 0.00 0.00 0.00 97 1018.4
20260906083324 26 136 0.0 3.2 0.00 0.00 0.00 97 1018.7
20260906082644 26 135 0.0 6.4 0.00 0.00 0.00 98 1018.8
20260906082004 26 134 3.2 9.7 0.00 0.00 0.00 97 1018.9
20260906080644 26 130 3.2 6.4 0.00 0.00 0.00 98 1019.0
20260906080004 26 132 4.8 6.4 0.00 0.00 0.00 98 1018.8
20260906075324 25 137 3.2 6.4 0.00 0.00 0.00 98 1018.6
20260906074644 25 131 1.6 6.4 0.00 0.00 0.00 97 1018.6
20260906074004 26 131 4.8 4.8 0.00 0.00 0.00 97 1018.6
20260906072004 26 131 1.6 3.2 0.00 0.00 0.00 97 1018.5
20260906071324 26 130 1.6 3.2 0.00 0.00 0.00 96 1018.5
20260906070644 25 135 0.0 3.2 0.00 0.00 0.00 98 1018.6
20260906070004 25 134 3.2 3.2 0.00 0.00 0.00 98 1018.6
20260906065324 26 134 0.0 3.2 0.00 0.00 0.00 98 1018.7
20260906064644 26 131 1.6 3.2 0.00 0.00 0.00 97 1018.8
20260906064004 26 135 1.6 3.2 0.00 0.00 0.00 97 1018.9
20260906063324 26 135 3.2 4.8 0.00 0.00 0.00 97 1019.1
20260906062644 26 134 3.2 4.8 0.00 0.00 0.00 97 1019.0
20260906061324 26 129 0.0 3.2 0.00 0.00 0.00 98 1019.1
20260906060644 26 136 1.6 3.2 0.00 0.00 0.00 96 1019.2
20260906060004 26 135 3.2 3.2 0.00 0.00 0.00 98 1019.2
20260906055328 26 135 1.6 3.2 0.00 0.00 0.00 98 1019.3
20260906054644 26 131 0.0 4.8 0.00 0.00 0.00 97 1019.3
20260906054004 26 131 1.6 4.8 0.00 0.00 0.00 97 1019.4
20260906053324 26 131 4.8 4.8 0.00 0.00 0.00 97 1019.3
20260906051324 26 125 1.6 6.4 0.00 0.00 0.00 95 1019.4
20260906050004 26 125 3.2 6.4 0.00 0.00 0.00 98 1019.5
20260906045323 26 130 0.0 6.4 0.00 0.00 0.00 97 1019.3
20260906044648 26 129 3.2 4.8 0.00 0.00 0.00 97 1019.3
20260906044003 26 134 0.0 4.8 0.00 0.00 0.00 97 1019.2
20260906042643 26 131 3.2 4.8 0.00 0.00 0.00 97 1019.3
20260906042003 26 130 3.2 4.8 0.00 0.00 0.00 97 1019.5
20260906040003 26 131 3.2 4.8 0.00 0.00 0.00 97 1019.2
20260906035323 26 130 1.6 3.2 0.00 0.00 0.00 97 1019.3
20260906034643 26 131 0.0 4.8 0.00 0.00 0.00 97 1019.4
20260906034003 26 131 3.2 4.8 0.00 0.00 0.00 97 1019.5
20260906033323 27 131 3.2 3.2 0.00 0.00 0.00 97 1019.5
20260906032643 27 131 1.6 3.2 0.00 0.00 0.00 97 1019.4
20260906032003 27 131 0.0 4.8 0.00 0.00 0.00 97 1019.3
20260906031323 27 130 3.2 4.8 0.00 0.00 0.00 97 1019.3
20260906030003 27 130 6.4 6.4 0.00 0.00 0.00 97 1019.3
20260906025323 27 131 1.6 3.2 0.00 0.00 0.00 97 1019.3
20260906024643 27 130 3.2 4.8 0.00 0.00 0.00 97 1019.3
20260906024003 27 132 3.2 8.0 0.00 0.00 0.00 97 1019.3
20260906023323 27 130 4.8 8.0 0.00 0.00 0.00 97 1019.3
20260906022643 27 131 3.2 6.4 0.00 0.00 0.00 97 1019.2
20260906022003 27 130 3.2 4.8 0.00 0.00 0.00 97 1019.2
20260906020003 27 131 3.2 9.7 0.00 0.00 0.00 97 1019.1
20260906015323 27 130 4.8 9.7 0.00 0.00 0.00 97 1018.9
20260906014643 27 130 4.8 6.4 0.00 0.00 0.00 97 1018.8
20260906014003 28 131 3.2 6.4 0.00 0.00 0.00 97 1018.8
20260906013323 28 131 1.6 6.4 0.00 0.00 0.00 97 1018.5
20260906012003 28 131 4.8 6.4 0.00 0.00 0.00 97 1018.1
20260906011323 28 130 4.8 9.7 0.00 0.00 0.00 97 1018.0
20260906010643 28 130 4.8 6.4 0.00 0.00 0.00 97 1018.0
20260906010003 28 131 4.8 8.0 0.00 0.00 0.00 97 1017.8
20260906005323 28 130 4.8 8.0 0.00 0.00 0.00 97 1017.9
20260906004643 28 130 6.4 8.0 0.00 0.00 0.00 97 1017.8
20260906003323 28 130 4.8 9.7 0.00 0.00 0.00 97 1017.8
20260906002643 29 130 4.8 8.0 0.00 0.00 0.00 97 1017.7
20260906002003 29 131 6.4 11.3 0.00 0.00 0.00 97 1017.9
20260906000643 29 130 6.4 14.5 0.00 0.00 0.00 97 1017.9
20260906000003 29 130 9.7 16.1 0.00 0.00 0.00 97 1017.9
20260905235323 30 130 9.7 17.7 0.00 0.00 0.00 97 1018.0
20260905234643 30 130 9.7 19.3 0.00 0.00 0.00 97 1018.0
20260905233322 30 130 9.7 16.1 0.00 0.00 0.00 97 1018.0
20260905232642 30 130 11.3 16.1 0.00 0.00 0.00 97 1018.2
20260905232002 30 130 6.4 24.1 0.00 0.00 0.00 97 1018.1
20260905231322 31 130 11.3 24.1 0.00 0.00 0.00 97 1018.0
20260905230642 31 131 8.0 17.7 0.00 0.00 0.00 97 1017.9
20260905230002 31 131 9.7 17.7 0.00 0.00 0.00 97 1017.9
20260905224002 32 130 12.9 20.9 0.00 0.00 0.00 97 1017.8
20260905223322 32 130 11.3 22.5 0.00 0.00 0.00 97 1017.7
20260905222002 33 130 12.9 22.5 0.00 0.00 0.00 97 1017.7
20260905220002 34 131 11.3 20.9 0.00 0.00 0.00 97 1017.5
20260905214642 35 130 12.9 20.9 0.00 0.00 0.00 97 1017.3
20260905214002 35 130 11.3 20.9 0.00 0.00 0.00 97 1017.4
20260905213322 35 130 11.3 20.9 0.00 0.00 0.00 97 1017.4
20260905212642 35 130 12.9 20.9 0.00 0.00 0.00 97 1017.5
20260905211322 35 130 12.9 22.5 0.00 0.00 0.00 97 1017.6
20260905210642 35 130 11.3 16.1 0.00 0.00 0.00 97 1017.6
20260905210002 35 130 8.0 16.1 0.00 0.00 0.00 97 1017.6
20260905205322 35 130 6.4 17.7 0.00 0.00 0.00 97 1017.7
20260905204002 36 130 8.0 14.5 0.00 0.00 0.00 97 1017.8
20260905203322 36 130 9.7 14.5 0.00 0.00 0.00 97 1017.8
20260905202642 37 131 6.4 14.5 0.00 0.00 0.00 97 1017.8
20260905202002 37 130 4.8 14.5 0.00 0.00 0.00 97 1017.8
20260905201323 36 132 4.8 14.5 0.00 0.00 0.00 97 1017.9
20260905200643 35 133 8.0 19.3 0.00 0.00 0.00 97 1018.0
20260905200003 36 130 9.7 17.7 0.00 0.00 0.00 97 1018.0
20260905195323 36 130 9.7 17.7 0.00 0.00 0.00 97 1018.0
20260905194003 35 130 11.3 16.1 0.00 0.00 0.00 97 1018.1
20260905191323 33 130 9.7 19.3 0.00 0.00 0.00 97 1018.6
20260905190643 34 130 11.3 27.4 0.00 0.00 0.00 97 1018.7
20260905185323 35 130 14.5 22.5 0.00 0.00 0.00 97 1018.8
20260905184643 33 131 12.9 19.3 0.00 0.00 0.00 97 1019.0
20260905184003 35 130 6.4 14.5 0.00 0.00 0.00 97 1019.0
20260905183323 33 130 9.7 19.3 0.00 0.00 0.00 97 1019.1
20260905182003 35 131 3.2 14.5 0.00 0.00 0.00 95 1019.2
20260905181323 35 130 9.7 17.7 0.00 0.00 0.00 97 1019.3
20260905180644 36 127 4.8 16.1 0.00 0.00 0.00 97 1019.4
20260905180003 36 126 6.4 11.3 0.00 0.00 0.00 96 1019.4
20260905175323 37 126 6.4 9.7 0.00 0.00 0.00 97 1019.5
20260905174003 36 129 3.2 19.3 0.00 0.00 0.00 97 1019.8
20260905173323 36 125 6.4 14.5 0.00 0.00 0.00 96 1019.9
20260905170003 35 122 11.3 19.3 0.00 0.00 0.00 96 1020.2
20260905165323 34 136 3.2 12.9 0.00 0.00 0.00 97 1020.3
20260905164643 34 127 9.7 14.5 0.00 0.00 0.00 96 1020.4
20260905164003 34 128 4.8 17.7 0.00 0.00 0.00 96 1020.5
20260905163323 35 125 9.7 17.7 0.00 0.00 0.00 96 1020.5
20260905161323 36 132 3.2 12.9 0.00 0.00 0.00 97 1020.7
20260905160643 34 134 8.0 12.9 0.00 0.00 0.00 98 1020.7
20260905160003 36 128 4.8 9.7 0.00 0.00 0.00 96 1020.8
20260905154643 34 127 8.0 12.9 0.00 0.00 0.00 96 1020.6
20260905154003 34 125 3.2 11.3 0.00 0.00 0.00 97 1020.7
20260905153323 33 128 8.0 14.5 0.00 0.00 0.00 95 1020.7
20260905152003 33 127 6.4 12.9 0.00 0.00 0.00 98 1020.5
20260905151323 33 133 4.8 17.7 0.00 0.00 0.00 97 1020.7
20260905150643 32 122 9.7 17.7 0.00 0.00 0.00 96 1020.7
20260905150003 32 122 8.0 16.1 0.00 0.00 0.00 96 1020.7
20260905145323 32 125 8.0 14.5 0.00 0.00 0.00 96 1020.8
20260905144003 31 125 6.4 12.9 0.00 0.00 0.00 95 1020.9
20260905142643 31 125 8.0 16.1 0.00 0.00 0.00 96 1020.9
20260905142004 31 130 8.0 12.9 0.00 0.00 0.00 97 1020.9
20260905141323 30 126 8.0 12.9 0.00 0.00 0.00 98 1021.0
20260905140643 30 124 9.7 12.9 0.00 0.00 0.00 96 1020.9
20260905140003 30 129 6.4 11.3 0.00 0.00 0.00 98 1021.0
20260905135323 29 127 6.4 9.7 0.00 0.00 0.00 98 1021.0
20260905134643 29 136 4.8 9.7 0.00 0.00 0.00 98 1021.1
20260905134003 28 126 6.4 9.7 0.00 0.00 0.00 97 1021.0
20260905132643 28 124 4.8 9.7 0.00 0.00 0.00 95 1021.0
20260905132003 27 125 4.8 6.4 0.00 0.00 0.00 96 1021.0
20260905131323 27 129 3.2 6.4 0.00 0.00 0.00 98 1021.1
20260905130643 27 127 4.8 4.8 0.00 0.00 0.00 98 1021.2
20260905125323 26 126 3.2 6.4 0.00 0.00 0.00 96 1021.2
20260905124643 26 123 4.8 6.4 0.00 0.00 0.00 95 1021.3
20260905123323 25 128 1.6 4.8 0.00 0.00 0.00 96 1021.2
20260905122643 25 121 3.2 4.8 0.00 0.00 0.00 96 1021.2
20260905122003 25 131 1.6 3.2 0.00 0.00 0.00 99 1021.2
20260905121323 24 139 3.2 4.8 0.00 0.00 0.00 98 1021.1
20260905115323 23 139 3.2 3.2 0.00 0.00 0.00 98 1021.0
20260905114643 23 139 3.2 3.2 0.00 0.00 0.00 98 1020.9
20260905113324 23 137 3.2 4.8 0.00 0.00 0.00 98 1020.9
20260905112643 23 131 1.6 3.2 0.00 0.00 0.00 98 1020.8
20260905112003 23 136 1.6 3.2 0.00 0.00 0.00 98 1020.8
20260905111323 23 136 3.2 3.2 0.00 0.00 0.00 98 1020.8